Location: Unspecified
(0.0000°N, 0.0000°E)
Time: 17:54:50
(UTC+00:00)

S-56A Canister/Altair - All Passes

Search period start: 18 January 2020 00:00
Search period end: 28 January 2020 00:00
Orbit: 634 x 2498 km, 38.9° (Epoch: 18 January)

Date Brightness Start Highest point End Pass type
(mag) Time Alt. Az. Time Alt. Az. Time Alt. Az.
18 Jan - 05:15:47 10° NNW 05:22:45 36° NE 05:32:44 10° ESE visible
18 Jan - 07:18:36 10° WNW 07:27:45 61° SW 07:41:08 10° SE daylight
18 Jan - 09:27:15 10° WSW 09:35:41 21° SSW 09:45:33 10° SSE daylight
18 Jan - 16:02:37 10° SSW 16:10:58 21° SSE 16:17:31 10° ESE daylight
18 Jan - 18:07:11 10° SW 18:17:33 74° SE 18:24:10 10° NE daylight
18 Jan - 20:16:29 10° W 20:21:15 18° NW 20:25:06 10° N visible
19 Jan - 04:43:46 10° N 04:49:54 29° NE 04:58:25 10° ESE visible
19 Jan - 06:45:53 10° WNW 06:54:28 69° SW 07:07:26 10° SE daylight
19 Jan - 08:53:30 10° WSW 09:01:57 23° SSW 09:12:14 10° SSE daylight
19 Jan - 15:29:16 10° SSW 15:37:30 19° SSE 15:44:08 10° ESE daylight
19 Jan - 17:33:36 10° SW 17:44:33 64° SE 17:51:39 10° ENE daylight
19 Jan - 19:42:09 10° W 19:48:35 24° NW 19:53:26 10° N visible
20 Jan - 04:11:55 10° N 04:17:07 22° NE 04:23:56 10° E visible
20 Jan - 06:13:16 10° NW 06:21:18 79° SW 06:33:42 10° SE daylight
20 Jan - 08:19:58 10° W 08:28:19 25° SSW 08:38:51 10° SSE daylight
20 Jan - 14:55:56 10° S 15:03:54 18° SSE 15:10:33 10° ESE daylight
20 Jan - 16:59:59 10° SW 17:11:28 56° SE 17:19:02 10° ENE daylight
20 Jan - 19:07:59 10° WSW 19:15:54 32° NW 19:21:31 10° NNE visible
21 Jan - 03:40:23 10° N 03:44:21 16° NE 03:49:12 10° E visible
21 Jan - 05:40:45 10° NW 05:48:15 90° ENE 05:59:56 10° SE visible
21 Jan - 07:46:39 10° W 07:54:46 28° SSW 08:05:25 10° SSE daylight
21 Jan - 14:22:39 10° S 14:30:13 16° SSE 14:36:45 10° ESE daylight
21 Jan - 16:26:23 10° SW 16:38:17 49° SE 16:46:20 10° ENE daylight
21 Jan - 18:33:53 10° WSW 18:43:10 41° NW 18:49:29 10° NNE visible
22 Jan - 03:09:43 10° NNE 03:11:37 11° NE 03:13:41 10° ENE visible
22 Jan - 05:08:20 10° NW 05:15:18 77° NE 05:26:10 10° SE visible
22 Jan - 07:13:30 10° W 07:21:19 30° SSW 07:31:57 10° SSE daylight
22 Jan - 09:29:43 10° SSW 09:30:43 10° SSW 09:31:44 10° SSW daylight
22 Jan - 13:49:28 10° S 13:56:25 15° SSE 14:02:39 10° SE daylight
22 Jan - 15:52:47 10° SSW 16:04:59 44° SE 16:13:29 10° ENE daylight
22 Jan - 17:59:51 10° WSW 18:10:21 51° NW 18:17:18 10° NNE daylight
23 Jan - 04:36:00 10° NW 04:42:27 64° NE 04:52:22 10° ESE visible
23 Jan - 06:40:29 10° W 06:47:57 33° SSW 06:58:28 10° SSE daylight
23 Jan - 08:53:55 10° SSW 08:56:49 11° SSW 08:59:55 10° S daylight
23 Jan - 13:16:24 10° S 13:22:33 13° SSE 13:28:13 10° SE daylight
23 Jan - 15:19:14 10° SSW 15:31:35 39° SE 15:40:32 10° E daylight
23 Jan - 17:25:52 10° WSW 17:37:27 62° NW 17:45:01 10° NE daylight
24 Jan - 04:03:47 10° NNW 04:09:41 51° NE 04:18:33 10° ESE visible
24 Jan - 06:07:36 10° W 06:14:42 37° SW 06:25:00 10° SSE daylight
24 Jan - 08:19:18 10° SW 08:23:02 12° SSW 08:27:07 10° S daylight
24 Jan - 12:43:37 10° S 12:48:35 12° SSE 12:53:18 10° SE daylight
24 Jan - 14:45:43 10° SSW 14:58:06 36° SE 15:07:26 10° E daylight
24 Jan - 16:51:56 10° SW 17:04:27 74° NW 17:12:37 10° NE daylight
24 Jan - 19:04:28 10° WNW 19:08:35 14° NW 19:12:06 10° NNW visible
25 Jan - 03:31:38 10° NNW 03:37:01 39° NE 03:44:44 10° ESE visible
25 Jan - 05:34:50 10° WNW 05:41:33 41° SW 05:51:31 10° SSE visible
25 Jan - 07:45:09 10° SW 07:49:21 13° SSW 07:54:06 10° S daylight
25 Jan - 12:11:27 10° S 12:14:32 11° SSE 12:17:34 10° SSE daylight
25 Jan - 14:12:15 10° SSW 14:24:31 32° SSE 14:34:10 10° E daylight
25 Jan - 16:18:02 10° SW 16:31:20 85° NW 16:40:08 10° NE daylight
25 Jan - 18:29:12 10° W 18:35:43 19° NW 18:40:52 10° N visible
26 Jan - 02:59:37 10° NNW 03:04:24 30° NE 03:10:52 10° ESE visible
26 Jan - 05:02:09 10° WNW 05:08:31 47° SW 05:18:04 10° SE visible
26 Jan - 07:11:18 10° SW 07:15:47 14° SSW 07:20:58 10° S daylight
26 Jan - 13:38:51 10° SSW 13:50:50 29° SSE 14:00:43 10° E daylight
26 Jan - 15:44:12 10° SW 15:58:06 84° SE 16:07:32 10° NE daylight
26 Jan - 17:54:23 10° W 18:02:49 24° NW 18:09:09 10° N daylight
27 Jan - 02:27:46 10° N 02:31:48 22° NE 02:36:55 10° E visible
27 Jan - 04:29:34 10° WNW 04:35:34 55° SW 04:44:38 10° SE visible
27 Jan - 06:37:43 10° SW 06:42:19 15° SSW 06:47:49 10° S daylight
27 Jan - 13:05:33 10° SSW 13:17:06 26° SSE 13:27:03 10° E daylight
27 Jan - 15:10:26 10° SW 15:24:46 75° SE 15:34:50 10° NE daylight
27 Jan - 17:19:47 10° WSW 17:29:52 31° NW 17:37:11 10° NNE daylight
